Other Public Products
Issued by NWS Charleston, SC

Current Version | Previous Version | Text Only | Print | Product List | Glossary Off
Versions: 1 2 3 4 5 6 7 8 9 10 11 12 13 14 15 16 17 18 19 20 21 22 23 24 25 26 27 28 29 30 31 32 33 34 35 36 37 38 39 40 41 42 43 44 45 46 47 48 49 50

000
FPUS82 KCHS 211427
OPUCHS

TEST...KCHS/KSAV Gateway Observations...TEST
National Weather Service Charleston SC
1000 AM EDT SAT APR 21 2018

NOTE: "fair" indicates few or no clouds below 12,000 feet with no
significant weather and/or obstructions to visibility.

SCZ050-WAZ558-NCZ071-TXZ119-213-PAZ071-DCZ001-FLZ074-172-MI076-
NYZ176-178-MAZ016-IL014-TNZ027-NJZ106-GAZ044-MD014-211500-

...Gateway Observations for Charleston International...

CITY           SKY/WX    TMP DP  RH WIND       PRES   REMARKS
Chas Airport   FAIR      66  45  46 NE12      30.36S
Seattle        PTCLDY    46  40  79 S16       30.28R
Charlotte      FAIR      58  30  34 VRB5      30.43S
Dallas DFW     CLOUDY    60  49  66 SE21G28   29.96F
Dallas Love    CLOUDY    62  49  62 SE21      29.98F
Philladelphia  PTSUNNY   49  25  39 NW10      30.47R
Wash National  PTSUNNY   49  24  37 CALM      30.51R
Baltimore      PTSUNNY   49  27  42 W5        30.49S
Miami          PTSUNNY   80  67  64 E9        30.12R
Detroit        CLOUDY    46  28  49 VRB3      30.49F
Newark         PTSUNNY   51  25  36 NW10      30.42S
Laguardia      FAIR      49  27  42 NW12      30.41S
J F K          FAIR      50  27  40 NW10      30.42S
Boston Logan   FAIR      48  23  37 NW12G22   30.30S
Ft. Lauderdale PTSUNNY   80  71  74 E7        30.11R
Chicago O`Hare CLOUDY    47  18  31 CALM      30.45R
Chicago Midway CLOUDY    48  22  35 CALM      30.46R
Houston Bush   LGT RAIN  64  59  83 E12       30.05S
Houston Hobby  CLOUDY    69  66  90 E10       30.03S
Nashville      FAIR      56  33  42 SE5       30.33F
Atlanta        PTSUNNY   58  39  49 SE12      30.34S

$$

GAZ044-118-TXZ119-213-NCZ071-DCZ001-MDZ014-506-PAZ021-071-NJZ106-
NYZ176-178-MAZ106-OHZ011-021-055-MIZ076-KYZ091-ILZ014-INZ047-
MNZ060-ONZ431-211500-

...Gateway Observations for Savannah International...

CITY           SKY/WX    TMP DP  RH WIND       PRES   REMARKS
Savannah Arpt  FAIR      66  49  54 E14G22    30.32F
Atlanta        PTSUNNY   58  39  49 SE12      30.34S
Charlotte      FAIR      58  30  34 VRB5      30.43S
Dallas DFW     CLOUDY    60  49  66 SE21G28   29.96F
Houston Bush   LGT RAIN  64  59  83 E12       30.05S
Wash National  PTSUNNY   49  24  37 CALM      30.51R
Wash Dulles    PTSUNNY   48  27  44 NW3       30.50S
Baltimore      PTSUNNY   49  27  42 W5        30.49S
Philadelphia   PTSUNNY   49  25  39 NW10      30.47R
Newark         PTSUNNY   51  25  36 NW10      30.42S
Laguardia      FAIR      49  27  42 NW12      30.41S
J F K          FAIR      50  27  40 NW10      30.42S
Boston         FAIR      48  23  37 NW12G22   30.30S
Pittsburg      PTSUNNY   42  25  50 CALM      30.46F
Akron          FAIR      45  21  38 CALM      30.47S
Cleveland      PTSUNNY   46  22  38 CALM      30.51S
Cincinnati     PTSUNNY   49  23  36 E8        30.44R
Columbus       FAIR      46  27  47 E7        30.46S
Detroit        CLOUDY    46  28  49 VRB3      30.49F
Chicago O`Hare CLOUDY    47  18  31 CALM      30.45R
Minneapolis    PTSUNNY   43  28  55 E5        30.44S
Indianapolis   PTSUNNY   51  26  37 E13       30.42F
Toronto Canada PTSUNNY   46  23  39 VRB2      30.47S

$$




USA.gov is the U.S. government's official web portal to all federal, state and local government web resources and services.